User: anonymous   Login
Location: Erskine
(52.3216°N, 112.8806°W)
Time: 08:19:13
(UTC+00:00)
Language:

deb Delta 132 - Orbit

View from above orbital plane
View from above orbital plane
View from above satellite
View from above satellite

Ground track
Ground track

The orbit data is extracted from the following two-line orbital elements,

1 10262U 77065CP  24140.95561046  .00010128  00000-0  22610-2 0  9998
2 10262  29.0613   5.7111 0659445  92.7497 274.8676 13.70470731301883
Epoch (UTC): 19 May 2024 22:56:04
Eccentricity: 0.0659445
inclination: 29.0613°
perigee height: 511 km
apogee height: 1484 km
right ascension of ascending node: 5.7111°
argument of perigee: 92.7497°
revolutions per day: 13.70470731
mean anomaly at epoch: 274.8676°
orbit number at epoch: 30188

The dashed part of the orbit path shows where the satellite is in the earth's shadow,  

DLR